Погода в Карпогорах

Россия / Архангельская область     64°00′02″N   44°26′58″E
темп.,
°C
ветер,
м/с
пор.,
м/с
влажн.,
%
обл.,
%
осадки,
мм/ч
давл.,
гПа
погр.,
м
5 августа, чт
чт500:00+11зюз310765 0.0 1010494
03:00+10зюз3871100 0.0 10111072
06:00+11зюз4973100 0.0 1013777
09:00+12зюз5870100 0.0 1014851
12:00+13зюз4869100 0.0 1015996
15:00+14зсз3764100 0.0 10171055
18:00+14сз366753 0.0 1018968
21:00+9с239468 0.0 101865
6 августа, пт
пт600:00+7ссз22970 0.0 101932
03:00+6ссз119810 0.0 102112
06:00+9ссв128812 0.0 1021176
09:00+14ссв235789 0.0 1021865
12:00+18ссв234360 0.0 10211891
15:00+19ссв333899 0.0 10202115
18:00+17св244829 0.0 1021613
21:00+13всв246514 0.0 102285
7 августа, сб
сб700:00+9вюв117343 0.0 102210
03:00+8всв11805 0.0 102310
06:00+11св23720 0.0 1024160
09:00+16св23540 0.0 10241007
12:00+18св34350 0.0 10231602
15:00+19св34331 0.0 10221767
18:00+18св34410 0.0 10221149
21:00+12св37650 0.0 1023116
8 августа, вс
вс800:00+9всв377616 0.0 1023133
03:00+8всв2582100 0.0 1023107
06:00+11в28695 0.0 1023238
09:00+17в464684 0.0 10231126
12:00+20в4535100 0.0 10221628
15:00+20в4633100 0.0 10211777
18:00+18в4741100 0.0 1021852
21:00+13в2859100 0.0 1021161
9 августа, пн
пн900:00+11в2966100 0.0 1021212
03:00+12вюв2865100 0.0 1021326
06:00+11в31182100 0.4 1020530
09:00+11в41289100 1.3 1020711
12:00+11в51292100 1.3 1021716
15:00+12вюв41287100 1.4 1021647
18:00+14вюв397369 0.0 1021665
21:00+10вюв22925 0.0 102218